ZY 3

导读

ZY-3(资源三号)是中国首颗自主研制的高精度民用立体测绘卫星,于北京时间2012年1月9日在太原卫星发射中心由长征四号乙运载火箭以"一箭双星"方式成功发射,进入太阳同步轨道。卫星搭载三线阵立体测绘相机与多光谱载荷,可获取高分辨率立体影像,填补我国自主立体测图领域空白,能生产1:5万比例尺地形图,广泛服务于国土资源调查、国土测绘、城市规划等领域,标志着我国测绘卫星技术实现关键突破。

Basic Information
目录编号:
38046
目录名称:
ZY 3
国际标识:
2012-001A
轨道中心:
EARTH
卫星名称:
ZY 3
卫星全名:
--
卫星状态:
已陨落 最后检测时间 2026-03-22
发射日期:
2012-01-09 UTC
国别 :
中国 (CN)
星等 :
--
Orbit Information
数据来源 国际轨道数据
星历时间: 2026-03-22T08:22:12+0800
轨道信息已过期128天
半长轴: 6529.157km
偏心率: 0.0011085
轨道倾角: 97.135°
近地点辐角 256.335°
升交点赤经 157.143°
平近点角 103.672°
近地点: 143.782km
远地点: 158.258km
周期: 87.508分钟
每日圈数: 16.45573
Detailed Information
使用方式:
暂无